Flag for Canada Weather past 2 weeks in Sarnia, Ontario, Canada

Now
28 °F

Light snow. Mostly cloudy.


Feels Like: 17 °F
Forecast: 28 / 32 °F
Wind: 14 mph from Northwest

Location: Sarnia Airport

Current Time: Dec 18, 2014 at 9:36:00 AM

Latest Report: Dec 18, 2014 at 9:00 AM


Visibility: 9 mi

Pressure: 30.20 "Hg

Humidity: 86%

Dew point: 25 °F

Location of SarniaLocation

Historic Weather in Sarnia — Graph

°F

Sarnia temperature yesterday

Maximum temperature yesterday: 43 °F (at 12:00 AM)
Minimum temperature yesterday: 27 °F (at 10:00 PM)
Average temperature yesterday: 33 °F

Past Weeks' High & Low Weather Summary

 TemperatureHumidityPressure
High45 °F (Dec 15, 9:00 AM)100% (Dec 9, 2:00 AM)30.75 "Hg (Dec 9, 2:00 AM)
Low23 °F (Dec 4, 6:00 AM)32% (Dec 7, 2:00 PM)29.65 "Hg (Dec 16, 1:57 PM)
Average35 °F79%30.16 "Hg
* Reported Dec 3 8:00 AM — Dec 18 8:00 AM, Sarnia, Weather by CustomWeather, © 2014

Note: Actual official high and low records may vary slightly from our data, if they occured in-between our weather recording intervals... More about our weather records

Advertising

Sarnia weather history for previous 24 hours

 ConditionsComfort  
Time TempWeatherWind HumidityBarometerVisibility
8:00 AM
Dec 18
28 °FOvercast.10 mph86%30.20 "Hg9 mi
7:00 AM30 °FOvercast.12 mph86%30.19 "Hg9 mi
6:00 AM30 °FOvercast.12 mph86%30.18 "Hg9 mi
5:00 AM30 °FOvercast.9 mph86%30.17 "Hg9 mi
4:00 AM28 °FOvercast.8 mph93%30.17 "Hg9 mi
3:00 AM28 °FIce fog.9 mph93%30.18 "Hg4 mi
2:52 AM28 °FIce fog.8 mph93%30.17 "Hg5 mi
2:00 AM28 °FOvercast.10 mph80%30.15 "Hg9 mi
1:00 AM28 °FMostly cloudy.14 mph80%30.13 "Hg9 mi
12:52 AM28 °FMostly cloudy.12 mph80%30.13 "Hg9 mi
12:00 AM28 °FOvercast.14 mph74%30.12 "Hg9 mi
11:00 PM
Dec 17
28 °FOvercast.13 mph74%30.11 "Hg9 mi
10:00 PM27 °FLight snow. Overcast.10 mph80%30.11 "Hg9 mi
9:00 PM28 °FLight snow. Overcast.14 mph74%30.10 "Hg9 mi
8:00 PM30 °FOvercast.12 mph69%30.10 "Hg9 mi
7:00 PM30 °FMostly cloudy.13 mph69%30.09 "Hg9 mi
6:00 PM30 °FMostly cloudy.15 mph69%30.07 "Hg9 mi
5:00 PM30 °FOvercast.15 mph75%30.05 "Hg9 mi
4:00 PM30 °FOvercast.14 mph75%30.05 "Hg9 mi
3:00 PM32 °FOvercast.15 mph69%30.03 "Hg9 mi
2:00 PM34 °FOvercast.16 mph70%30.02 "Hg9 mi
1:00 PM32 °FOvercast.18 mph75%30.01 "Hg9 mi
12:00 PM34 °FOvercast.13 mph75%30.01 "Hg9 mi
11:00 AM34 °FOvercast.18 mph75%30.01 "Hg9 mi
10:00 AM34 °FOvercast.18 mph75%30.00 "Hg9 mi
9:00 AM32 °FMostly cloudy.20 mph80%29.98 "Hg9 mi
Weather by CustomWeather, © 2014

See weather overviewHow to use our weather pages